www.pogodaiklimat.ru

Погода и климат >> Архив погоды >> Чехия >> Коцеловице


ПОГОДА в Коцеловице

  • Прогноз погоды в Коцеловице
  • Монитор погоды в Коцеловице

АРХИВ ПОГОДЫ в Коцеловице

Время (UTC), дата Ветер
(напр.,м/с)
 
Видим.   Явления Облачность Т
(С)
Тd
(С)
f
(%)
Тe
(С)
Тes
(С)
Комфортность P
(гПа)
Po
(гПа)
Тmin
(С)
Tmax
(С)
R
(мм)
R24
(мм)
S
(см)
13 18.06 В 4 60 км 1/1 1500 м
[Cu med, cong Ac cuf]
+25.4 +12.2 44 +27 +36 жарко 1014.2 955.9
14 18.06 В 4 60 км 4/3 1500 м
[Cu med, cong Ac cuf Ci sp]
+25.7 +12.5 44 +27 +33 жарко 1013.6 955.4
15 18.06 В 3 60 км 3/1 1500 м
[Cu med, cong Ac lent Ci sp]
+25.9 +13.6 47 +28 +34 жарко 1013.0 954.9
16 18.06 В 4 65 км 4/1 1500 м
[Cu med, cong Ac cast Ci sp]
+25.9 +13.1 45 +28 +30 жарко 1012.5 954.4
17 18.06 В 4 65 км 4/1 1500 м
[Cb cap Ac cast Ci sp]
+24.6 +12.7 47 +26 +28 жарко 1012.7 954.3
18 18.06 СВ 3 65 км 5/4 1500 м
[Sc diur, vesp Ac cast Ci sp]
+23.0 +13.9 57 +26 +27 жарко 1013.1 954.4 +26.6
19 18.06 СВ 3 65 км 6/5 1500 м
[Sc diur, vesp Ac lent Ci sp]
+21.5 +13.4 60 +24 +24 комфорт 1013.4 954.4
20 18.06 В 4 65 км 4/4 1500 м
[Sc diur, vesp Ac lent Ci sp]
+20.2 +13.7 66 +22 +22 комфорт 1013.8 954.6
21 18.06 СВ 4 35 км н/о +18.9 +14.0 73 +20 +20 1014.1 954.6
22 18.06 В 4 30 км н/о +18.0 +13.6 75 +18 +18 1014.0 954.3
23 18.06 В 4 30 км н/о +17.2 +13.3 78 +17 +17 1014.1 954.2
00 19.06 В 3 30 км н/о +17.1 +13.1 77 +17 +17 1014.1 954.2
01 19.06 СВ 3 29 км н/о +16.6 +13.1 80 +16 +16 1013.7 953.7
02 19.06 СВ 2 26 км н/о +15.7 +13.6 87 +16 +16 1013.7 953.6
03 19.06 СВ 2 23 км н/о +15.5 +13.8 90 +15 +15 1013.6 953.4
04 19.06 С 2 27 км н/о +16.7 +13.6 82 +17 +17 1013.3 953.4
05 19.06 В 1 27 км н/о +18.3 +15.4 83 +20 +20 1013.0 953.5
06 19.06 ЮВ 2 40 км 6/0
[Ci sp]
+19.7 +14.9 74 +22 +26 комфорт 1012.8 953.5 +15.0
07 19.06 40 км 8/1 720 м
[Cu med, cong Ci sp]
+21.6 +15.9 70 1012.2 953.4
08 19.06 35 км 8/1 900 м
[Cu med, cong Ac cast Ci sp]
+23.3 +15.7 62 1011.7 953.2
09 19.06 нст 1 40 км 8/3 1000 м
[Cu med, cong Ac lent Cs]
+24.7 +16.0 58 +28 +36 душно 1011.0 952.8
10 19.06 40 км 9/4 1200 м
[Cb calv Ac lent Cs]
+25.5 +14.6 51 1010.6 952.6
11 19.06 30 км осадки на расстоянии 9/5 1200 м
[Cb calv Ac lent Cs]
+25.6 +15.3 53 1010.5 952.5
12 19.06 З 2 30 км осадки на расстоянии 9/4 1200 м
[Cb cap Ci ing]
+24.9 +14.3 52 +27 +36 жарко 1010.9 952.7
13 19.06 З 4 30 км в посл. час ливневой дождь 9/4 1200 м
[Cb cap Ac cuf Ci ing]
+24.8 +13.1 48 +27 +30 жарко 1010.3 952.1
14 19.06 З 4 35 км осадки на расстоянии 9/4 1000 м
[Cb cap Ac cuf Ci ing]
+22.9 +15.7 64 +27 +30 душно 1010.6 952.1
15 19.06 ЮЗ 3 45 км осадки на расстоянии {ливн. осадки} 8/4 1000 м
[Cb cap Ac cuf Ci ing]
+22.8 +12.5 52 +26 +28 жарко 1010.1 951.5
16 19.06 65 км 6/1 1080 м
[Cu med, cong Ac cuf Ci ing]
+24.3 +12.8 49 1009.3 951.1
17 19.06 В 2 70 км 8/1 1080 м
[Cu med, cong Ac cuf Ci ing]
+24.0 +14.1 54 +26 +28 жарко 1009.7 951.4
18 19.06 ЮВ 2 70 км {ливн. осадки} 8/1 1000 м
[Sc diur, vesp Ac cuf Ci ing]
+22.9 +14.5 59 +27 +27 душно 1009.8 951.3 +26.7 0.0
19 19.06 ЮВ 3 70 км 8/1 1000 м
[Sc diur, vesp Ac cuf Ci ing]
+21.5 +13.1 59 +24 +24 комфорт 1010.3 951.5
20 19.06 В 3 65 км 8/0
[Ac cuf Ci sp]
+18.8 +14.0 74 +20 +20 1011.1 951.7
21 19.06 В 2 35 км н/о +19.1 +13.8 71 +21 +21 комфорт 1011.2 951.9
22 19.06 В 2 30 км н/о +17.4 +13.5 78 +18 +18 1011.3 951.6
23 19.06 С 1 35 км н/о +17.5 +13.4 77 +19 +19 1011.3 951.7
00 20.06 СВ 2 26 км н/о +15.8 +14.0 89 +16 +16 1011.6 951.6
01 20.06 СВ 2 21 км н/о +15.4 +14.0 91 +15 +15 1011.2 951.2
02 20.06 СВ 1 20 км н/о +14.8 +13.8 94 +15 +15 1011.4 951.2
03 20.06 СВ 2 8000 м дымка н/о +14.2 +13.8 97 +14 +14 1011.6 951.3
04 20.06 З 3 12 км н/о +14.2 +13.9 98 +13 +13 1012.8 952.4
05 20.06 З 5 30 км н/о +16.9 +13.3 79 +16 +16 1012.4 952.6
06 20.06 З 6
{11}
40 км 4/0
[Ac cast Ci sp]
+19.6 +12.9 65 +21 +22 комфорт 1012.1 952.8 +13.3
07 20.06 З 5 55 км 8/0
[Ac inh Ci sp]
+20.7 +13.4 63 +23 +25 комфорт 1011.5 952.5
08 20.06 ЮЗ 3 60 км 8/0
[Ac inh Ci fib]
+21.0 +13.7 63 +24 +29 комфорт 1011.9 952.9
09 20.06 З 3 60 км 8/1 960 м
[Cu med, cong Ac inh Ci fib]
+21.9 +14.4 62 +25 +32 комфорт 1012.1 953.3
10 20.06 ЮЗ 4 55 км слаб. ливневой дождь 9/1 1000 м
[Cu med, cong Ac inh Ci fib]
+22.4 +13.8 58 +26 +31 жарко 1012.2 953.5
11 20.06 З 4 55 км в посл. час ливневой дождь 9/6 1500 м
[Sc diur, vesp Ac inh]
+22.2 +12.4 54 +25 +27 комфорт 1012.7 953.9
12 20.06 ЮЗ 2 55 км осадки на расстоянии {ливн. осадки} 9/4 1000 м
[Cb calv Ac inh]
+21.3 +15.1 68 +24 +29 комфорт 1012.7 953.8 0.0
13 20.06 Ю 3 65 км 8/4 1000 м
[Cb cap Ac As Ci ing]
+22.9 +15.6 63 +27 +32 душно 1011.7 953.1
14 20.06 З 3 65 км 6/3 1300 м
[Cb cap Ac cuf Ci ing]
+25.0 +13.8 50 +27 +33 жарко 1010.9 952.7
15 20.06 ЮЗ 4 65 км 6/4 1300 м
[Cb cap Ac cuf Ci ing]
+24.3 +14.1 53 +27 +30 жарко 1010.4 952.1
16 20.06 ЮЗ 3 60 км осадки на расстоянии 9/3 1080 м
[Cb cap Ac inh Ci ing]
+22.7 +13.7 57 +26 +28 жарко 1011.0 952.4
17 20.06 З 3 50 км в посл. час ливневой дождь 9/4 900 м
[Cb cap Ac inh]
+21.0 +15.1 69 +25 +25 комфорт 1011.6 952.7
18 20.06 З 3 40 км осадки на расстоянии {ливн. осадки} 9/4 900 м
[Cb cap Ac inh]
+20.8 +15.3 71 +24 +24 комфорт 1012.2 953.2 +25.8 0.0
19 20.06 З 7 30 км осадки на расстоянии 9/3 900 м
[Cb cap Ac inh]
+20.6 +13.3 63 +23 +23 комфорт 1012.8 953.7
20 20.06 З 5
{11}
30 км 10/1 900 м
[Cb cap Ac As]
+17.9 +13.2 74 +18 +18 1014.8 955.0
21 20.06 Ю 3
{12}
35 км слаб. ливневой дождь н/о +16.3 +13.5 83 +16 +16 1015.4 955.3
22 20.06 29 км слаб. ливневой дождь н/о +15.5 +14.7 95 1016.2 955.9
23 20.06 СЗ 2 35 км {ливн. осадки} н/о +15.5 +14.2 92 +15 +15 1016.2 955.9
00 21.06 З 2
{12}
35 км слаб. ливневой дождь н/о +15.6 +14.3 92 +15 +15 1016.0 955.7 0.2
01 21.06 35 км {ливн. осадки} н/о +15.6 +13.3 86 1016.0 955.7
02 21.06 З 4 35 км н/о +15.1 +13.1 88 +14 +14 1016.1 955.7
03 21.06 З 3 35 км {ливн. осадки} н/о +14.9 +13.1 89 +14 +14 1016.4 955.9
04 21.06 З 3 35 км н/о +14.5 +12.8 90 +14 +14 1017.0 956.4
05 21.06 З 3 35 км н/о +16.3 +13.4 83 +16 +16 1016.9 956.7
06 21.06 З 3 60 км 4/1 450 м
[Cu hum Ac lent Ci sp]
+17.5 +14.2 81 +18 +20 1016.8 956.9 +14.0 0.2
07 21.06 З 4 65 км 4/1 450 м
[Cu med, cong Ac lent]
+18.3 +14.8 80 +19 +22 1017.1 957.3
08 21.06 З 4 65 км 5/4 660 м
[Cu med, cong Ac lent Cc]
+20.2 +14.8 71 +23 +27 комфорт 1016.8 957.4
09 21.06 З 3 65 км 6/5 900 м
[Cu med, cong Ac cuf Ci fib]
+21.9 +14.5 63 +25 +31 комфорт 1016.7 957.6
10 21.06 З 3 70 км 5/3 1200 м
[Cb calv Ac cuf Ci fib]
+22.9 +12.3 51 +26 +34 жарко 1016.4 957.5
11 21.06 СЗ 3 40 км осадки на расстоянии 8/4 1260 м
[Cb calv Ac cuf Ci fib]
+23.1 +13.3 54 +26 +32 жарко 1016.0 957.2
12 21.06 СЗ 3 27 км осадки на расстоянии 9/4 1350 м
[Cb cap Ac cuf Ci ing]
+23.4 +11.7 48 +26 +31 жарко 1016.0 957.2
13 21.06 З 4 35 км осадки на расстоянии 9/3 1350 м
[Cb cap Ac cuf Ci ing]
+23.9 +12.5 49 +26 +30 жарко 1015.8 957.1
14 21.06 З 4 55 км осадки на расстоянии 9/3 1440 м
[Cb cap Ac cuf Ci ing]
+23.8 +12.2 48 +26 +29 жарко 1015.4 956.7
15 21.06 З 4 70 км 8/3 1440 м
[Cb cap Ac cuf Ci ing]
+24.6 +13.9 51 +27 +29 жарко 1015.1 956.6
16 21.06 З 3 >70 км 9/1 1440 м
[Cu med, cong Ac cuf Ci sp]
+23.3 +11.8 48 +26 +28 жарко 1015.4 956.6
17 21.06 З 3 >70 км 6/1 1440 м
[Cu med, cong Ac cuf Ci sp]
+23.0 +11.9 50 +26 +27 жарко 1015.4 956.6
18 21.06 ЮЗ 2 50 км осадки на расстоянии 8/3 1440 м
[Cb calv Ac cuf Ci sp]
+23.2 +13.3 54 +26 +27 жарко 1015.7 956.9 +25.2
19 21.06 З 1 35 км осадки на расстоянии 5/3 1300 м
[Cb calv Ac cuf Ci fib]
+21.5 +12.8 58 +24 +24 комфорт 1016.6 957.4
20 21.06 СВ 3 40 км 8/3 1300 м
[Cb calv Ac cuf Ci sp]
+19.2 +14.0 72 +21 +21 комфорт 1017.7 958.0
21 21.06 СВ 5 35 км н/о +17.8 +14.8 83 +17 +17 1018.7 958.7
22 21.06 СВ 6 35 км н/о +17.1 +14.5 85 +16 +16 1018.8 958.7
23 21.06 СВ 4 35 км н/о +16.3 +14.2 87 +16 +16 1019.2 958.9
00 22.06 СВ 4 35 км н/о +15.8 +14.2 90 +15 +15 1019.3 958.9
01 22.06 СВ 3 35 км н/о +15.5 +13.9 90 +15 +15 1019.5 959.0
02 22.06 В 2 35 км н/о +15.9 +13.9 88 +16 +16 1019.3 958.9
03 22.06 Ю 2 24 км н/о +15.1 +14.0 93 +15 +15 1019.5 958.9
04 22.06 ЮЗ 1 21 км н/о +15.5 +14.5 94 +16 +16 1019.7 959.2
05 22.06 СВ 3 3400 м дождь н/о +15.5 +15.2 98 +15 +15 1019.8 959.3
06 22.06 СВ 4 8000 м в посл. час дождь 9/1 600 м
[Sc diur, vesp Ac As]
+15.9 +15.5 97 +15 +16 1019.8 959.4 +14.8 6
07 22.06 В 4 11 км 9/1 270 м
[Frnb Ac As]
+16.9 +16.1 95 +16 +18 1019.8 959.6
08 22.06 ЮВ 4 17 км 9/6 400 м
[Cu med, cong Ac As]
+17.5 +16.4 93 +17 +19 1019.5 959.5
09 22.06 В 5 30 км 9/8 400 м
[Cu med, cong Ac As]
+18.3 +15.6 84 +18 +19 1019.3 959.4
10 22.06 ЮВ 5 30 км 9/6 480 м
[Cu med, cong Ac As]
+18.7 +15.6 82 +19 +21 1019.4 959.6
11 22.06 ЮВ 6 30 км 9/6 540 м
[Cu med, cong Ac As]
+19.6 +15.1 75 +21 +22 комфорт 1018.8 959.2
12 22.06 ЮВ 5 35 км 9/8 630 м
[Cu med, cong Ac As]
+20.4 +15.2 72 +23 +24 комфорт 1018.0 958.6
13 22.06 В 4 35 км 9/8 660 м
[Cb calv Ac As]
+19.8 +15.3 75 +22 +23 комфорт 1017.8 958.3
14 22.06 СВ 5 12 км слаб. ливневой дождь 9/5 660 м
[Cb calv Ac As]
+17.7 +16.8 94 +17 +19 1017.9 958.0
15 22.06 СВ 5 14 км в посл. час ливневой дождь 10/4 210 м
[Sc diur, vesp Ac As]
+17.8 +16.9 94 +17 +18 1017.2 957.4
16 22.06 СВ 6 8000 м слаб. ливневой дождь 10/8 750 м
[Cb calv Ac As]
+18.0 +17.0 94 +17 +18 1016.6 956.8
17 22.06 СВ 4 16 км в посл. час ливневой дождь 10/8 900 м
[Cb calv Ac As]
+17.5 +16.5 94 +17 +17 1016.0 956.2
18 22.06 СВ 6 9000 м слаб. ливневой дождь 10/8 700 м
[Cb calv Ac As]
+17.6 +16.6 94 +17 +17 1016.1 956.3 +21.0 8
19 22.06 СВ 5 11 км гроза, ливневой дождь 10/8 900 м
[Cb cap Ac As]
+17.2 +16.0 93 +17 +17 1016.5 956.6
20 22.06 ЮВ 1 9000 м слаб. ливневой дождь, в посл. час гроза 10/8 1080 м
[Cb cap Ac As]
+16.7 +16.3 97 +18 +18 1017.4 957.3
21 22.06 нст 1 4700 м слаб. ливневой дождь {гроза} н/о +16.4 +16.3 99 +17 +17 1017.4 957.3
22 22.06 СВ 2 10 км {ливн. осадки, дымка} н/о +16.5 +16.0 97 +17 +17 1017.5 957.4
23 22.06 СВ 3 16 км н/о +16.3 +15.3 94 +16 +16 1017.4 957.2
00 23.06 СВ 4 21 км {гроза, ливн. осадки} н/о +16.0 +14.6 91 +15 +15 1017.4 957.1 5
01 23.06 СВ 6 25 км н/о +15.7 +14.0 90 +14 +14 1017.3 957.0
02 23.06 СВ 6 30 км н/о +15.2 +13.0 87 +14 +14 1017.3 956.8
03 23.06 СВ 4 30 км н/о +14.9 +12.8 87 +14 +14 1017.8 957.2
04 23.06 СВ 4 30 км н/о +14.9 +12.5 86 +14 +14 1018.0 957.4
05 23.06 СВ 4 30 км н/о +15.4 +12.4 82 +14 +14 1018.3 957.8
06 23.06 СВ 4 30 км 9/9 540 м
[Cu Sc]
+15.4 +12.3 82 +14 +15 1018.7 958.2 +14.7 5
07 23.06 СВ 4 30 км 10/10 540 м
[Sc]
+16.2 +12.9 81 +15 +15 1018.9 958.5
08 23.06 СВ 5 30 км 10/10 600 м
[Sc]
+16.8 +12.8 77 +16 +16 1019.3 959.0
09 23.06 СВ 5 35 км 9/5 600 м
[Cu Sc Ac As]
+18.4 +14.4 78 +19 +20 1018.9 959.0
10 23.06 СВ 6 30 км 9/8 630 м
[Cu Sc Ac As]
+18.9 +15.0 78 +20 +20 1019.2 959.4
11 23.06 СВ 6
{11}
30 км 9/6 630 м
[Cu Sc Ac As]
+18.8 +15.0 79 +19 +21 1019.7 959.9
12 23.06 СВ 6
{11}
35 км 9/6 700 м
[Cu Sc Ac As]
+19.9 +15.7 77 +22 +23 комфорт 1019.4 959.8
13 23.06 В 7 30 км 9/4 800 м
[Cu med, cong Ac lent Ci sp]
+20.7 +15.2 71 +23 +25 комфорт 1019.1 959.7
14 23.06 СВ 5
{11}
35 км 9/5 800 м
[Cu med, cong Ac lent Ci sp]
+21.1 +15.5 70 +24 +26 комфорт 1019.0 959.7
15 23.06 В 5
{11}
35 км 8/5 900 м
[Cu med, cong Ci fib]
+22.3 +15.7 66 +26 +28 жарко 1018.4 959.3
16 23.06 СВ 4 35 км 9/6 1020 м
[Cu med, cong Ci fib]
+22.0 +15.2 65 +26 +27 душно 1018.3 959.2
17 23.06 СВ 4 35 км 6/3 1020 м
[Cu med, cong Ac cuf Ci fib]
+21.0 +15.4 70 +24 +25 комфорт 1018.7 959.4
18 23.06 СВ 3
{11}
35 км осадки на расстоянии 6/4 1080 м
[Sc diur, vesp Ac cuf Ci fib]
+21.1 +15.5 70 +24 +24 комфорт 1019.2 959.9 +23.1
19 23.06 СВ 4 30 км 4/3 1080 м
[Sc diur, vesp Ac cuf Ci fib]
+19.1 +14.5 75 +20 +20 1020.1 960.3
20 23.06 СВ 3 35 км 4/3 1380 м
[Sc diur, vesp Ci fib]
+18.2 +14.8 81 +19 +19 1021.0 961.0
21 23.06 СВ 4 30 км н/о +16.5 +14.2 86 +16 +16 1021.8 961.4
22 23.06 СВ 3 35 км н/о +16.4 +13.4 82 +16 +16 1022.1 961.6
23 23.06 СВ 3 35 км н/о +15.1 +12.9 87 +14 +14 1022.5 961.7
00 24.06 СВ 3 35 км н/о +15.9 +12.2 79 +15 +15 1022.3 961.7
01 24.06 СВ 2 35 км н/о +15.3 +12.3 82 +15 +15 1022.7 961.9
02 24.06 З 1 35 км н/о +14.4 +12.6 89 +15 +15 1023.0 962.0
03 24.06 СВ 2 23 км н/о +13.2 +11.7 91 +12 +12 1023.6 962.3
04 24.06 27 км н/о +13.3 +11.8 91 1023.9 962.6
05 24.06 СВ 2 35 км н/о +16.1 +12.4 79 +16 +16 1023.2 962.6
06 24.06 СВ 3 40 км 1/0
[Ci fib]
+18.3 +12.0 67 +19 +22 1022.9 962.7 +12.3
07 24.06 55 км 1/0
[Ci fib]
+20.0 +11.6 58 1022.8 962.9
08 24.06 В 3 50 км 1/1 1050 м
[Cu hum Ci fib]
+21.3 +12.7 58 +24 +32 комфорт 1022.6 963.0
09 24.06 В 3 60 км 1/1 1080 м
[Cu hum Ci fib]
+22.3 +12.0 52 +25 +36 комфорт 1022.5 963.1
10 24.06 В 4 65 км 1/1 1300 м
[Cu hum Ci fib]
+22.9 +12.9 53 +26 +36 жарко 1022.2 963.0
11 24.06 В 3 65 км 3/3 1300 м
[Cu hum Ci fib]
+23.4 +14.0 56 +27 +38 душно 1021.9 962.8
12 24.06 В 3 65 км 3/3 1410 м
[Cu hum Ci fib]
+24.3 +12.1 46 +26 +36 жарко 1021.3 962.4
13 24.06 В 3 70 км 3/3 1500 м
[Cu hum]
+25.8 +13.5 47 +28 +37 жарко 1020.9 962.3
14 24.06 СВ 4 70 км 3/3 1500 м
[Cu hum]
+24.4 +12.6 48 +26 +32 жарко 1021.1 962.2
15 24.06 В 4 70 км 3/3 1500 м
[Cu hum]
+25.8 +15.0 51 +29 +32 душно 1020.8 962.2
16 24.06 В 3 70 км 1/1 1500 м
[Sc diur, vesp Ci fib]
+26.0 +14.5 49 +28 +32 жарко 1020.6 962.1
17 24.06 СВ 4 70 км 1/1 1500 м
[Sc diur, vesp Ci fib]
+25.1 +13.9 50 +27 +29 жарко 1020.7 962.0
18 24.06 В 3 70 км 1/1 1500 м
[Sc diur, vesp Ci fib]
+23.7 +15.1 59 +27 +27 жарко 1021.0 962.0 +26.7
19 24.06 В 4 70 км 4/4 1500 м
[Sc diur, vesp Ci fib]
+22.1 +14.4 62 +25 +25 комфорт 1021.7 962.4
20 24.06 В 3 65 км 1/1 1500 м
[Sc diur, vesp Ci fib]
+20.1 +14.5 70 +23 +23 комфорт 1022.7 962.9
21 24.06 В 3 35 км н/о +19.3 +14.3 73 +21 +21 комфорт 1022.8 962.9
22 24.06 В 3 35 км н/о +20.1 +14.1 68 +23 +23 комфорт 1022.7 962.9
23 24.06 В 3 35 км н/о +18.6 +14.2 76 +20 +20 1023.0 962.9
00 25.06 В 3 35 км {дымка} н/о +17.7 +14.1 79 +18 +18 1023.2 962.9
01 25.06 В 3 35 км н/о +17.6 +14.0 79 +18 +18 1023.0 962.7
02 25.06 В 3 29 км н/о +16.3 +13.7 85 +16 +16 1022.9 962.3
03 25.06 В 2 26 км н/о +16.3 +13.7 85 +16 +16 1022.7 962.2
04 25.06 СВ 2 21 км н/о +16.1 +13.8 86 +16 +16 1023.0 962.4
05 25.06 В 3 17 км н/о +17.8 +15.1 84 +18 +18 1022.7 962.5
06 25.06 В 3 35 км 1/0
[Ci fib]
+20.0 +14.9 72 +23 +26 комфорт 1022.3 962.5 +15.7
07 25.06 В 4 30 км 1/0
[Ci fib]
+21.5 +15.8 70 +25 +30 комфорт 1021.8 962.4
08 25.06 ЮВ 4 30 км 1/0
[Ci fib]
+23.6 +15.4 60 +27 +34 жарко 1021.7 962.7
09 25.06 В 6 35 км 1/1 1050 м
[Cu hum Ci fib]
+24.8 +16.3 59 +28 +33 жарко 1021.3 962.6
10 25.06 В 6 35 км 3/1 1200 м
[Cu hum Ci fib]
+26.1 +16.6 56 +30 +36 душно 1021.0 962.5
11 25.06 ЮВ 4 35 км 3/1 1300 м
[Cu hum Ci fib]
+27.6 +17.0 52 +31 +42 душно 1020.8 962.6

 

Местоположение метеостанции Коцеловице (Чехия): широта 49.47 долгота 13.83 высота над уровнем моря 522 м.

В архиве по умолчанию представлена погода в Коцеловице за последнюю неделю. Архивные данные за месяц целиком и за предыдущие месяцы, начиная с января 2011 года, Вы можете получить, выбрав интересующий диапазон дат из раскрывающегося списка и нажав кнопку "Ввод!".


*Определитесь, кто Вы:
робот инопланетянин человек

Внимание! Время в таблицах - всемирное. Для получения местного времени необходимо прибавить поправку, которая равна 1 ч.

Смотрите также архив погоды в соседних городах и на ближайших метеорологических станциях:

Погода в Пльзень-Микулке (Чехия) (47 км)
Погода в Чуранове (Чехия) (47 км)
Погода в Темелине (Чехия) (47 км)
Погода на Гросер-Арбер (Германия) (64 км)
Погода в Цвизеле (Германия) (66 км)
Погода в Ческе-Будеёвице (Чехия) (74 км)
Погода в Праге-Либус (Чехия) (76 км)
Погода в Праге (Чехия) (76 км)
Погода в Вальдмюнхене (Германия) (84 км)
Погода в Пршимде (Чехия) (87 км)

Пояснения к столбцам:

Ветер - указаны скорость ветра в м/с - средняя за 10 мин, порывы в срок и между сроками (в фигурных скобках) и направление, откуда дует ветер: С - северный, СВ - северо-восточный, В - восточный, ЮВ - юго-восточный, Ю - южный, ЮЗ - юго-западный, З - западный, СЗ - северо-западный.
Видимость - горизонтальная дальность видимости в метрах или километрах. При видимости от 1 до 10 км при отсутствии осадков обычно наблюдается дымка, при ухудшении видимости до 1 км и менее - туман. В сухую погоду видимость может ухудшаться дымом, пылью или мглою.
Явления - указаны атмосферные явления, наблюдавшиеся в срок или в последний час перед сроком; фигурными скобками обозначены явления, наблюдавшиеся между сроками (за 1-3 часа до срока); квадратными скобками обозначены град или гололедные отложения с указанием их диаметра в мм.
Облачность - указаны через наклонную черту общая и нижняя облачность в баллах и высота нижней границы облаков в метрах; квадратными скобками обозначены формы облаков: Ci - перистые, Cs - перисто-слоистые, Cc - перисто-кучевые, Ac - высококучевые, As - высокослоистые, Sc - слоисто-кучевые, Ns - слоисто-дождевые, Cu - кучевые, Cb - кучево-дождевые. Подробнее классификацию облаков см. в Атласе облаков (PDF).
T - Температура воздуха - температура, измеренная на высоте 2 м над землей.
Td - Температура точки росы - температура, при понижении до которой содержащийся в воздухе водяной пар достигнет насыщения.
f - Относительная влажность воздуха - влажноcть воздуха, измеренная на высоте 2 м над землей.
Te - Эффективная температура - температура, которую ощущает одетый по сезону человек в тени. Характеристика душности погоды. При расчете учитывается влияние влажности воздуха и скорости ветра на теплоощущения человека.
Tes - Эффективная температура на солнце - температура, которую ощущает человек, с поправкой на солнечный нагрев. Характеристика знойности погоды. Зависит от высоты солнца над горизонтом, облачности и скорости ветра. Ночью, в пасмурную погоду, а также при ветре 12 м/с и более поправка равна нулю.
P - Атмосферное давление - приведенное к уровню моря атмосферное давление.
Po - Атмосферное давление - измеренное на уровне метеостанции атмосферное давление.
Tmin - Минимальная температура - минимум температуры воздуха на высоте 2 м над землей.
Tmax - Максимальная температура - максимум температуры воздуха на высоте 2 м над землей.
R - Количество осадков - Количество выпавших осадков за период времени, мм. При наведении курсора мыши на число - период времени, за который выпало указанное количество осадков.
R24 - Количество осадков - Количество выпавших осадков за 24 часа, мм.
S - Снежный покров - Высота снежного покрова, см. При наведении курсора мыши на число - состояние снежного покрова и степень покрытия местности в баллах.